Васильевка

Беларусь     52˚14′45″N   31˚30′33″E
темп.,
°C
ветер,
м/с
пор.,
м/с
влажн.,
%
обл.,
%
осадки,
мм/ч
давл.,
гПа
погр.,
м
6 декабря, вс
вс600:00−4˚юв613690 0.0 1034384
03:00−5˚юв612650 0.0 1035352
06:00−6˚юв612650 0.0 1035311
09:00−6˚юв612650 0.0 1036309
12:00−3˚юв612540 0.0 1037368
15:00−3˚юв610590 0.0 1036425
18:00−4˚вюв513710 0.0 1036374
21:00−4˚вюв612740 0.0 1036424
7 декабря, пн
пн700:00−5˚юв614730 0.0 1036468
03:00−6˚юв613740 0.0 1037494
06:00−6˚юв613740 0.0 1036474
09:00−7˚вюв612740 0.0 1036449
12:00−5˚вюв712650 0.0 1035489
15:00−4˚вюв712640 0.0 1035545
18:00−5˚вюв613640 0.0 1034514
21:00−5˚вюв613590 0.0 1035512
8 декабря, вт
вт800:00−6˚вюв613630 0.0 1034477
03:00−6˚вюв612650 0.0 1034433
06:00−7˚вюв612670 0.0 1033414
09:00−7˚вюв612680 0.0 1033393
12:00−5˚вюв611600 0.0 1033476
15:00−3˚вюв612590 0.0 1032562
18:00−4˚вюв613630 0.0 1031539
21:00−4˚вюв513600 0.0 1032527
9 декабря, ср
ср900:00−5˚вюв512580 0.0 1032458
03:00−5˚вюв511570 0.0 1032423
06:00−6˚вюв510620 0.0 1032396
09:00−6˚вюв611640 0.0 1031418
12:00−4˚вюв610560 0.0 1031478
15:00−3˚вюв510610 0.0 1030553
18:00−4˚вюв512680 0.0 1029585
21:00−5˚юв512660 0.0 1029530
10 декабря, чт
чт1000:00−5˚юв511710 0.0 1029425
03:00−4˚юв5107037 0.0 1029397
06:00−4˚юв61077100 0.0 1028418
09:00−4˚вюв6107796 0.0 1028398
12:00−3˚вюв61181100 0.0 1028453
15:00−2˚вюв61081100 0.1 1027434
18:00−2˚юв71284100 0.0 1027442
21:00−3˚юв71384100 0.0 1026385